LAN184 SCEL-SCAR

Flight info

Callsign LAN184
Flight time 2h 24m
Altitude 36000
Route DONTI5B DONTI UQ802 SIRAM
Aircraft A320/M-SDE3FGHIRWY/LB1

Departure

Time 2026-04-20 15:56
Airport Comodoro Arturo Merino Benítez International Airport (SCEL)

Arrival

Time 2026-04-20 18:21
Airport Chacalluta International Airport (SCAR)
Time Latitude Longitude Altitude Speed Heading
2026-04-20 15:37 -33.39705 -70.78953 1564 ft 0 kts 357°
2026-04-20 15:44 -33.39712 -70.78953 1564 ft 3 kts 358°
2026-04-20 15:45 -33.39733 -70.78952 1564 ft 3 kts 360°
2026-04-20 15:45 -33.39753 -70.78952 1564 ft 3 kts
2026-04-20 15:45 -33.39773 -70.78956 1564 ft 3 kts 18°
2026-04-20 15:45 -33.39789 -70.78965 1564 ft 3 kts 57°
2026-04-20 15:46 -33.39793 -70.78978 1564 ft 2 kts 88°
2026-04-20 15:46 -33.39794 -70.78996 1564 ft 1 kts 88°
2026-04-20 15:46 -33.39794 -70.78998 1564 ft 0 kts 88°
2026-04-20 15:49 -33.39793 -70.78972 1564 ft 8 kts 88°
2026-04-20 15:49 -33.39790 -70.78904 1564 ft 9 kts 81°
2026-04-20 15:49 -33.39747 -70.78880 1564 ft 6 kts
2026-04-20 15:49 -33.39707 -70.78882 1564 ft 5 kts 356°
2026-04-20 15:50 -33.39663 -70.78884 1564 ft 10 kts 358°
2026-04-20 15:50 -33.39581 -70.78887 1564 ft 13 kts 359°
2026-04-20 15:50 -33.39494 -70.78888 1564 ft 12 kts
2026-04-20 15:50 -33.39423 -70.78851 1564 ft 10 kts 28°
2026-04-20 15:51 -33.39366 -70.78812 1564 ft 9 kts 30°
2026-04-20 15:51 -33.39309 -70.78795 1564 ft 12 kts 358°
2026-04-20 15:51 -33.39192 -70.78801 1564 ft 19 kts 357°
2026-04-20 15:51 -33.39058 -70.78809 1564 ft 19 kts 357°
2026-04-20 15:52 -33.38933 -70.78817 1564 ft 17 kts 357°
2026-04-20 15:52 -33.38821 -70.78822 1564 ft 15 kts 358°
2026-04-20 15:52 -33.38721 -70.78826 1564 ft 14 kts 358°
2026-04-20 15:53 -33.38534 -70.78836 1564 ft 15 kts 357°
2026-04-20 15:53 -33.38410 -70.78843 1564 ft 20 kts 357°
2026-04-20 15:53 -33.38279 -70.78850 1564 ft 18 kts 357°
2026-04-20 15:53 -33.38132 -70.78857 1564 ft 23 kts 358°
2026-04-20 15:54 -33.37968 -70.78867 1565 ft 24 kts 358°
2026-04-20 15:54 -33.37795 -70.78875 1564 ft 25 kts 357°
2026-04-20 15:54 -33.37660 -70.78876 1564 ft 16 kts 17°
2026-04-20 15:54 -33.37623 -70.78777 1564 ft 11 kts 87°
2026-04-20 15:55 -33.37620 -70.78683 1564 ft 7 kts 89°
2026-04-20 15:55 -33.37643 -70.78671 1565 ft 3 kts 168°
2026-04-20 15:55 -33.37657 -70.78669 1565 ft 1 kts 173°
2026-04-20 15:55 -33.37666 -70.78668 1565 ft 4 kts 173°
2026-04-20 15:56 -33.37912 -70.78653 1564 ft 73 kts 177°
2026-04-20 15:56 -33.38639 -70.78614 1564 ft 133 kts 177°
2026-04-20 15:56 -33.39724 -70.78549 1611 ft 174 kts 176°
2026-04-20 15:56 -33.40946 -70.78499 2258 ft 176 kts 177°
2026-04-20 15:57 -33.42230 -70.78429 2761 ft 196 kts 178°
2026-04-20 15:57 -33.43671 -70.78340 3128 ft 219 kts 177°
2026-04-20 15:57 -33.45282 -70.78241 3512 ft 244 kts 177°
2026-04-20 15:57 -33.47053 -70.78145 4060 ft 263 kts 181°
2026-04-20 15:58 -33.48835 -70.78678 4806 ft 271 kts 213°
2026-04-20 15:58 -33.50077 -70.80340 5612 ft 272 kts 249°
2026-04-20 15:58 -33.50323 -70.82535 6508 ft 267 kts 282°
2026-04-20 15:58 -33.49851 -70.84669 7442 ft 264 kts 291°
2026-04-20 15:59 -33.49297 -70.86769 8387 ft 265 kts 291°
2026-04-20 15:59 -33.48739 -70.88871 9358 ft 265 kts 291°
2026-04-20 15:59 -33.48180 -70.90970 10252 ft 269 kts 292°
2026-04-20 15:59 -33.47622 -70.93218 10628 ft 293 kts 288°
2026-04-20 16:00 -33.46992 -70.95579 11137 ft 301 kts 297°
2026-04-20 16:00 -33.45937 -70.97743 11850 ft 302 kts 310°
2026-04-20 16:00 -33.44398 -70.99446 12681 ft 303 kts 326°
2026-04-20 16:00 -33.42476 -71.00511 13462 ft 309 kts 339°
2026-04-20 16:01 -33.40421 -71.01300 14217 ft 312 kts 339°
2026-04-20 16:01 -33.38343 -71.02099 14857 ft 316 kts 339°
2026-04-20 16:01 -33.36245 -71.02914 15523 ft 319 kts 338°
2026-04-20 16:01 -33.34125 -71.03742 16145 ft 322 kts 337°
2026-04-20 16:02 -33.31983 -71.04583 16809 ft 325 kts 337°
2026-04-20 16:02 -33.29819 -71.05432 17487 ft 329 kts 337°
2026-04-20 16:02 -33.27657 -71.06277 18140 ft 333 kts 336°
2026-04-20 16:02 -33.25446 -71.07141 18708 ft 336 kts 336°
2026-04-20 16:03 -33.23214 -71.08014 19208 ft 340 kts 336°
2026-04-20 16:03 -33.20955 -71.08900 19755 ft 343 kts 336°
2026-04-20 16:03 -33.18671 -71.09792 20308 ft 346 kts 336°
2026-04-20 16:03 -33.16372 -71.10687 20883 ft 349 kts 336°
2026-04-20 16:04 -33.14053 -71.11588 21391 ft 352 kts 336°
2026-04-20 16:04 -33.11719 -71.12496 21878 ft 354 kts 335°
2026-04-20 16:04 -33.09368 -71.13412 22419 ft 356 kts 335°
2026-04-20 16:04 -33.07005 -71.14332 22914 ft 359 kts 335°
2026-04-20 16:05 -33.04615 -71.15260 23406 ft 362 kts 335°
2026-04-20 16:05 -33.02213 -71.16191 23922 ft 364 kts 335°
2026-04-20 16:05 -32.99790 -71.17136 24289 ft 368 kts 335°
2026-04-20 16:05 -32.97344 -71.18091 24692 ft 371 kts 335°
2026-04-20 16:06 -32.94821 -71.18849 25103 ft 380 kts 344°
2026-04-20 16:06 -32.92143 -71.19065 25539 ft 389 kts 351°
2026-04-20 16:06 -32.89433 -71.19113 25971 ft 391 kts 351°
2026-04-20 16:06 -32.86737 -71.19165 26387 ft 393 kts 351°
2026-04-20 16:07 -32.84001 -71.19219 26803 ft 395 kts 351°
2026-04-20 16:07 -32.81246 -71.19273 27207 ft 397 kts 351°
2026-04-20 16:07 -32.78473 -71.19327 27615 ft 399 kts 351°
2026-04-20 16:07 -32.75690 -71.19376 27981 ft 400 kts 350°
2026-04-20 16:08 -32.72903 -71.19423 28422 ft 401 kts 350°
2026-04-20 16:08 -32.70108 -71.19472 28824 ft 402 kts 350°
2026-04-20 16:08 -32.67298 -71.19523 29224 ft 404 kts 349°
2026-04-20 16:08 -32.64483 -71.19578 29622 ft 406 kts 349°
2026-04-20 16:09 -32.61647 -71.19633 29947 ft 408 kts 349°
2026-04-20 16:09 -32.58800 -71.19686 30258 ft 410 kts 349°
2026-04-20 16:09 -32.55940 -71.19736 30581 ft 411 kts 349°
2026-04-20 16:09 -32.53071 -71.19785 30873 ft 413 kts 349°
2026-04-20 16:10 -32.50190 -71.19835 31145 ft 415 kts 349°
2026-04-20 16:10 -32.47303 -71.19886 31418 ft 416 kts 349°
2026-04-20 16:10 -32.44434 -71.19941 31680 ft 418 kts 349°
2026-04-20 16:10 -32.41486 -71.19997 32056 ft 417 kts 348°
2026-04-20 16:11 -32.38621 -71.20051 32462 ft 416 kts 348°
2026-04-20 16:11 -32.35729 -71.20104 32792 ft 415 kts 348°
2026-04-20 16:11 -32.32844 -71.20156 33110 ft 415 kts 348°
2026-04-20 16:11 -32.29958 -71.20206 33493 ft 414 kts 348°
2026-04-20 16:12 -32.27077 -71.20254 33878 ft 413 kts 348°
2026-04-20 16:12 -32.24211 -71.20302 34213 ft 412 kts 347°
2026-04-20 16:12 -32.21351 -71.20350 34542 ft 411 kts 347°
2026-04-20 16:12 -32.18489 -71.20400 34853 ft 410 kts 347°
2026-04-20 16:13 -32.15633 -71.20451 35136 ft 410 kts 347°
2026-04-20 16:13 -32.12781 -71.20508 35432 ft 410 kts 347°
2026-04-20 16:13 -32.09923 -71.20565 35704 ft 410 kts 347°
2026-04-20 16:13 -32.07070 -71.20620 35977 ft 410 kts 347°
2026-04-20 16:14 -32.04212 -71.20674 36148 ft 411 kts 347°
2026-04-20 16:14 -32.01358 -71.20722 36200 ft 408 kts 347°
2026-04-20 16:14 -31.95729 -71.20805 36203 ft 402 kts 346°
2026-04-20 16:15 -31.90184 -71.20898 36201 ft 402 kts 346°
2026-04-20 16:15 -31.84585 -71.21014 36200 ft 403 kts 346°
2026-04-20 16:16 -31.78973 -71.21126 36195 ft 403 kts 346°
2026-04-20 16:16 -31.73325 -71.21010 36153 ft 408 kts 349°
2026-04-20 16:17 -31.67634 -71.20588 36162 ft 411 kts 351°
2026-04-20 16:17 -31.61933 -71.20147 36164 ft 410 kts 350°
2026-04-20 16:18 -31.56273 -71.19782 36174 ft 409 kts 349°
2026-04-20 16:18 -31.50546 -71.19455 36175 ft 409 kts 349°
2026-04-20 16:19 -31.44894 -71.19129 36155 ft 410 kts 349°
2026-04-20 16:19 -31.39182 -71.18788 36174 ft 412 kts 349°
2026-04-20 16:20 -31.33462 -71.18434 36170 ft 412 kts 349°
2026-04-20 16:20 -31.27747 -71.18079 36172 ft 411 kts 349°
2026-04-20 16:21 -31.22035 -71.17738 36163 ft 411 kts 349°
2026-04-20 16:21 -31.16320 -71.17398 36128 ft 411 kts 349°
2026-04-20 16:22 -31.10604 -71.17050 36137 ft 411 kts 349°
2026-04-20 16:22 -31.04886 -71.16707 36131 ft 412 kts 349°
2026-04-20 16:23 -30.99171 -71.16372 36129 ft 411 kts 349°
2026-04-20 16:23 -30.93488 -71.16033 36079 ft 411 kts 350°
2026-04-20 16:24 -30.87749 -71.15691 36132 ft 414 kts 350°
2026-04-20 16:24 -30.81997 -71.15338 36133 ft 414 kts 350°
2026-04-20 16:25 -30.76250 -71.14981 36131 ft 413 kts 350°
2026-04-20 16:25 -30.70515 -71.14641 36135 ft 413 kts 349°
2026-04-20 16:26 -30.64772 -71.14308 36104 ft 414 kts 350°
2026-04-20 16:26 -30.59000 -71.13962 36112 ft 416 kts 350°
2026-04-20 16:27 -30.53221 -71.13606 36126 ft 416 kts 350°
2026-04-20 16:27 -30.47448 -71.13254 36130 ft 416 kts 350°
2026-04-20 16:28 -30.41675 -71.12910 36129 ft 415 kts 350°
2026-04-20 16:28 -30.36837 -71.12630 36118 ft 416 kts 350°
2026-04-20 16:29 -30.31081 -71.12309 36132 ft 417 kts 350°
2026-04-20 16:29 -30.25273 -71.11974 36139 ft 417 kts 350°
2026-04-20 16:30 -30.19449 -71.11506 36152 ft 421 kts 352°
2026-04-20 16:30 -30.13611 -71.10830 36156 ft 422 kts 353°
2026-04-20 16:31 -30.07762 -71.10128 36124 ft 422 kts 353°
2026-04-20 16:31 -30.01906 -71.09482 36135 ft 422 kts 353°
2026-04-20 16:32 -29.96063 -71.08862 36137 ft 421 kts 353°
2026-04-20 16:32 -29.90266 -71.08248 36141 ft 421 kts 352°
2026-04-20 16:33 -29.84427 -71.07626 36144 ft 421 kts 353°
2026-04-20 16:33 -29.78582 -71.06999 36147 ft 422 kts 353°
2026-04-20 16:34 -29.72734 -71.06372 36150 ft 422 kts 353°
2026-04-20 16:34 -29.66888 -71.05747 36152 ft 422 kts 353°
2026-04-20 16:35 -29.61044 -71.05128 36146 ft 422 kts 353°
2026-04-20 16:35 -29.55193 -71.04499 36124 ft 422 kts 353°
2026-04-20 16:36 -29.49355 -71.03880 36137 ft 421 kts 353°
2026-04-20 16:36 -29.43528 -71.03252 36131 ft 422 kts 354°
2026-04-20 16:37 -29.37709 -71.02389 36142 ft 425 kts 355°
2026-04-20 16:37 -29.31852 -71.01402 36132 ft 425 kts 356°
2026-04-20 16:38 -29.25957 -71.00453 36101 ft 424 kts 355°
2026-04-20 16:38 -29.20123 -70.99818 36107 ft 419 kts 352°
2026-04-20 16:39 -29.14357 -70.99366 36117 ft 418 kts 352°
2026-04-20 16:39 -29.08540 -70.98886 36110 ft 420 kts 352°
2026-04-20 16:40 -29.02718 -70.98342 36120 ft 420 kts 353°
2026-04-20 16:40 -28.96899 -70.97779 36093 ft 420 kts 353°
2026-04-20 16:41 -28.91089 -70.97230 36109 ft 419 kts 353°
2026-04-20 16:41 -28.85274 -70.96689 36118 ft 419 kts 353°
2026-04-20 16:42 -28.79469 -70.96150 36108 ft 418 kts 353°
2026-04-20 16:42 -28.73662 -70.95604 36116 ft 418 kts 353°
2026-04-20 16:43 -28.67865 -70.95062 36098 ft 418 kts 353°
2026-04-20 16:43 -28.62119 -70.94530 36112 ft 419 kts 353°
2026-04-20 16:44 -28.56295 -70.93994 36132 ft 420 kts 353°
2026-04-20 16:44 -28.50469 -70.93436 36135 ft 420 kts 353°
2026-04-20 16:45 -28.44639 -70.92855 36119 ft 421 kts 354°
2026-04-20 16:45 -28.38815 -70.92236 36126 ft 421 kts 354°
2026-04-20 16:46 -28.32983 -70.91622 36131 ft 421 kts 354°
2026-04-20 16:46 -28.27158 -70.91018 36134 ft 420 kts 354°
2026-04-20 16:47 -28.21331 -70.90405 36134 ft 421 kts 354°
2026-04-20 16:47 -28.15500 -70.89775 36096 ft 421 kts 354°
2026-04-20 16:48 -28.09677 -70.89150 36109 ft 420 kts 354°
2026-04-20 16:48 -28.03849 -70.88532 36119 ft 420 kts 354°
2026-04-20 16:49 -27.98040 -70.87918 36113 ft 420 kts 354°
2026-04-20 16:49 -27.92249 -70.87304 36118 ft 419 kts 354°
2026-04-20 16:50 -27.86419 -70.86687 36093 ft 420 kts 354°
2026-04-20 16:50 -27.80580 -70.86069 36107 ft 420 kts 354°
2026-04-20 16:51 -27.74785 -70.85456 36114 ft 420 kts 354°
2026-04-20 16:51 -27.68953 -70.84841 36120 ft 420 kts 354°
2026-04-20 16:52 -27.63150 -70.84228 36129 ft 420 kts 354°
2026-04-20 16:52 -27.57309 -70.83607 36091 ft 420 kts 354°
2026-04-20 16:53 -27.51484 -70.82989 36111 ft 420 kts 354°
2026-04-20 16:53 -27.45682 -70.82378 36118 ft 420 kts 354°
2026-04-20 16:54 -27.39836 -70.81768 36121 ft 420 kts 354°
2026-04-20 16:54 -27.34028 -70.81165 36126 ft 421 kts 354°
2026-04-20 16:55 -27.28193 -70.80551 36101 ft 420 kts 354°
2026-04-20 16:55 -27.22397 -70.79945 36114 ft 420 kts 354°
2026-04-20 16:56 -27.16572 -70.79343 36123 ft 420 kts 354°
2026-04-20 16:56 -27.10728 -70.78734 36130 ft 420 kts 354°
2026-04-20 16:57 -27.04903 -70.78122 36130 ft 420 kts 354°
2026-04-20 16:57 -26.99075 -70.77509 36137 ft 420 kts 354°
2026-04-20 16:58 -26.93290 -70.76904 36138 ft 420 kts 354°
2026-04-20 16:58 -26.87484 -70.76297 36140 ft 420 kts 354°
2026-04-20 16:59 -26.81668 -70.75689 36143 ft 420 kts 354°
2026-04-20 16:59 -26.75850 -70.75078 36137 ft 419 kts 354°
2026-04-20 17:00 -26.67137 -70.74179 36118 ft 419 kts 355°
2026-04-20 17:01 -26.61332 -70.73355 36127 ft 423 kts 358°
2026-04-20 17:01 -26.55503 -70.72280 36127 ft 424 kts 359°
2026-04-20 17:02 -26.49716 -70.71214 36127 ft 423 kts 358°
2026-04-20 17:02 -26.43898 -70.70227 36127 ft 421 kts 356°
2026-04-20 17:03 -26.38097 -70.69612 36113 ft 416 kts 353°
2026-04-20 17:03 -26.32320 -70.69216 36122 ft 415 kts 353°
2026-04-20 17:04 -26.26574 -70.68790 36126 ft 416 kts 354°
2026-04-20 17:04 -26.20779 -70.68282 36130 ft 417 kts 354°
2026-04-20 17:05 -26.14989 -70.67753 36132 ft 417 kts 354°
2026-04-20 17:05 -26.09227 -70.67241 36106 ft 416 kts 354°
2026-04-20 17:06 -26.03480 -70.66737 36118 ft 416 kts 354°
2026-04-20 17:06 -25.97691 -70.66233 36124 ft 416 kts 354°
2026-04-20 17:07 -25.91912 -70.65735 36126 ft 416 kts 354°
2026-04-20 17:07 -25.86157 -70.65235 36126 ft 416 kts 354°
2026-04-20 17:08 -25.80401 -70.64735 36115 ft 416 kts 354°
2026-04-20 17:08 -25.74609 -70.64228 36127 ft 417 kts 354°
2026-04-20 17:09 -25.68821 -70.63718 36133 ft 416 kts 354°
2026-04-20 17:09 -25.63076 -70.63214 36141 ft 417 kts 354°
2026-04-20 17:10 -25.57285 -70.62722 36141 ft 416 kts 354°
2026-04-20 17:10 -25.51519 -70.62224 36122 ft 416 kts 354°
2026-04-20 17:11 -25.45744 -70.61724 36127 ft 416 kts 354°
2026-04-20 17:11 -25.39968 -70.61219 36134 ft 416 kts 354°
2026-04-20 17:12 -25.34200 -70.60717 36141 ft 416 kts 354°
2026-04-20 17:12 -25.28433 -70.60219 36143 ft 415 kts 354°
2026-04-20 17:13 -25.22706 -70.59728 36111 ft 415 kts 354°
2026-04-20 17:13 -25.16939 -70.59236 36118 ft 415 kts 354°
2026-04-20 17:14 -25.11173 -70.58737 36125 ft 416 kts 354°
2026-04-20 17:14 -25.05407 -70.58251 36127 ft 416 kts 354°
2026-04-20 17:15 -24.99634 -70.57748 36133 ft 416 kts 354°
2026-04-20 17:15 -24.93866 -70.57247 36110 ft 416 kts 354°
2026-04-20 17:16 -24.88092 -70.56759 36122 ft 416 kts 354°
2026-04-20 17:16 -24.82314 -70.56260 36123 ft 416 kts 354°
2026-04-20 17:17 -24.77515 -70.55945 36120 ft 413 kts 352°
2026-04-20 17:17 -24.70881 -70.55993 36121 ft 409 kts 349°
2026-04-20 17:18 -24.66103 -70.56116 36130 ft 410 kts 349°
2026-04-20 17:18 -24.59467 -70.56204 36101 ft 411 kts 350°
2026-04-20 17:19 -24.54706 -70.56222 36108 ft 412 kts 350°
2026-04-20 17:19 -24.48956 -70.56243 36110 ft 413 kts 350°
2026-04-20 17:20 -24.43208 -70.56274 36117 ft 413 kts 350°
2026-04-20 17:20 -24.37459 -70.56320 36124 ft 413 kts 350°
2026-04-20 17:21 -24.31705 -70.56363 36105 ft 413 kts 350°
2026-04-20 17:21 -24.25947 -70.56391 36109 ft 414 kts 350°
2026-04-20 17:22 -24.20193 -70.56422 36104 ft 414 kts 350°
2026-04-20 17:22 -24.14472 -70.56460 36108 ft 414 kts 350°
2026-04-20 17:23 -24.08714 -70.56493 36104 ft 414 kts 350°
2026-04-20 17:23 -24.02960 -70.56527 36108 ft 414 kts 350°
2026-04-20 17:24 -23.97201 -70.56567 36107 ft 414 kts 350°
2026-04-20 17:24 -23.91445 -70.56606 36109 ft 414 kts 350°
2026-04-20 17:25 -23.85685 -70.56640 36106 ft 414 kts 350°
2026-04-20 17:25 -23.79922 -70.56671 36106 ft 413 kts 350°
2026-04-20 17:26 -23.74167 -70.56679 36081 ft 414 kts 351°
2026-04-20 17:26 -23.68390 -70.56638 36082 ft 415 kts 351°
2026-04-20 17:27 -23.62607 -70.56602 36088 ft 415 kts 351°
2026-04-20 17:27 -23.56824 -70.56571 36092 ft 416 kts 351°
2026-04-20 17:28 -23.51074 -70.56546 36094 ft 415 kts 350°
2026-04-20 17:28 -23.45313 -70.56519 36096 ft 416 kts 351°
2026-04-20 17:29 -23.39510 -70.56498 36083 ft 417 kts 351°
2026-04-20 17:29 -23.33703 -70.56480 36090 ft 418 kts 351°
2026-04-20 17:30 -23.27888 -70.56450 36095 ft 418 kts 351°
2026-04-20 17:30 -23.22072 -70.56425 36097 ft 418 kts 351°
2026-04-20 17:31 -23.16257 -70.56402 36094 ft 418 kts 351°
2026-04-20 17:31 -23.10442 -70.56372 36077 ft 418 kts 351°
2026-04-20 17:32 -23.04623 -70.56343 36074 ft 418 kts 351°
2026-04-20 17:32 -22.98807 -70.56317 36079 ft 418 kts 351°
2026-04-20 17:33 -22.92989 -70.56294 36081 ft 418 kts 351°
2026-04-20 17:33 -22.87172 -70.56269 36081 ft 419 kts 351°
2026-04-20 17:34 -22.81340 -70.56171 36067 ft 420 kts 352°
2026-04-20 17:34 -22.75531 -70.56034 36073 ft 420 kts 352°
2026-04-20 17:35 -22.69687 -70.55909 36074 ft 420 kts 352°
2026-04-20 17:35 -22.63840 -70.55803 36077 ft 420 kts 352°
2026-04-20 17:36 -22.57994 -70.55693 36080 ft 420 kts 352°
2026-04-20 17:36 -22.52147 -70.55574 36062 ft 420 kts 352°
2026-04-20 17:37 -22.46302 -70.55462 36068 ft 420 kts 352°
2026-04-20 17:37 -22.40450 -70.55359 36065 ft 421 kts 352°
2026-04-20 17:38 -22.34598 -70.55253 36071 ft 421 kts 352°
2026-04-20 17:38 -22.28740 -70.55137 36073 ft 421 kts 352°
2026-04-20 17:39 -22.22886 -70.55019 36074 ft 421 kts 352°
2026-04-20 17:39 -22.17027 -70.54908 36059 ft 421 kts 353°
2026-04-20 17:40 -22.11163 -70.54802 36060 ft 421 kts 353°
2026-04-20 17:40 -22.05296 -70.54699 36064 ft 422 kts 353°
2026-04-20 17:41 -21.99424 -70.54599 36066 ft 422 kts 353°
2026-04-20 17:41 -21.93536 -70.54490 36067 ft 422 kts 353°
2026-04-20 17:42 -21.87695 -70.54377 36050 ft 423 kts 353°
2026-04-20 17:42 -21.81801 -70.54328 36057 ft 423 kts 352°
2026-04-20 17:43 -21.75903 -70.54308 36058 ft 423 kts 352°
2026-04-20 17:43 -21.70034 -70.54286 36062 ft 424 kts 352°
2026-04-20 17:44 -21.64119 -70.54250 36068 ft 424 kts 352°
2026-04-20 17:44 -21.58247 -70.54214 36059 ft 424 kts 353°
2026-04-20 17:45 -21.52320 -70.54172 36058 ft 425 kts 353°
2026-04-20 17:45 -21.46377 -70.54136 36061 ft 425 kts 353°
2026-04-20 17:46 -21.40476 -70.54107 36061 ft 425 kts 353°
2026-04-20 17:46 -21.34561 -70.54072 36063 ft 426 kts 353°
2026-04-20 17:47 -21.28654 -70.54039 36051 ft 426 kts 353°
2026-04-20 17:47 -21.22704 -70.54006 36049 ft 427 kts 353°
2026-04-20 17:48 -21.16744 -70.53974 36050 ft 428 kts 353°
2026-04-20 17:48 -21.10782 -70.53943 36054 ft 429 kts 353°
2026-04-20 17:49 -21.04806 -70.53904 36056 ft 429 kts 353°
2026-04-20 17:49 -20.98861 -70.53871 36056 ft 429 kts 353°
2026-04-20 17:50 -20.92887 -70.53840 36063 ft 429 kts 353°
2026-04-20 17:50 -20.86906 -70.53813 36066 ft 429 kts 353°
2026-04-20 17:51 -20.80956 -70.53779 36058 ft 429 kts 353°
2026-04-20 17:51 -20.74984 -70.53739 36060 ft 429 kts 353°
2026-04-20 17:52 -20.68998 -70.53699 36069 ft 429 kts 353°
2026-04-20 17:52 -20.63037 -70.53667 36053 ft 429 kts 354°
2026-04-20 17:53 -20.57068 -70.53630 36054 ft 429 kts 354°
2026-04-20 17:53 -20.51110 -70.53600 36036 ft 429 kts 354°
2026-04-20 17:54 -20.45117 -70.53565 36044 ft 430 kts 354°
2026-04-20 17:54 -20.39167 -70.53529 36044 ft 430 kts 354°
2026-04-20 17:55 -20.33177 -70.53503 36029 ft 429 kts 354°
2026-04-20 17:55 -20.27226 -70.53474 36039 ft 429 kts 354°
2026-04-20 17:56 -20.21244 -70.53439 36047 ft 429 kts 354°
2026-04-20 17:56 -20.15253 -70.53402 36037 ft 429 kts 354°
2026-04-20 17:57 -20.09303 -70.53359 36042 ft 429 kts 354°
2026-04-20 17:57 -20.03315 -70.53321 36039 ft 430 kts 354°
2026-04-20 17:58 -19.97348 -70.53471 35065 ft 426 kts 348°
2026-04-20 17:58 -19.94375 -70.53822 33988 ft 429 kts 347°
2026-04-20 17:58 -19.91505 -70.54181 33705 ft 415 kts 347°
2026-04-20 17:58 -19.88648 -70.54548 33192 ft 412 kts 347°
2026-04-20 17:59 -19.85811 -70.54918 32675 ft 410 kts 347°
2026-04-20 17:59 -19.82987 -70.55284 32162 ft 407 kts 348°
2026-04-20 17:59 -19.80185 -70.55642 31664 ft 405 kts 348°
2026-04-20 17:59 -19.77394 -70.55995 31160 ft 402 kts 348°
2026-04-20 18:00 -19.74626 -70.56340 30678 ft 400 kts 348°
2026-04-20 18:00 -19.71871 -70.56682 30200 ft 397 kts 349°
2026-04-20 18:00 -19.69141 -70.57019 29682 ft 393 kts 349°
2026-04-20 18:00 -19.66445 -70.57348 29233 ft 388 kts 349°
2026-04-20 18:01 -19.63783 -70.57673 28784 ft 383 kts 349°
2026-04-20 18:01 -19.61154 -70.57994 28354 ft 378 kts 349°
2026-04-20 18:01 -19.58559 -70.58311 27921 ft 374 kts 349°
2026-04-20 18:01 -19.55990 -70.58630 27483 ft 370 kts 350°
2026-04-20 18:02 -19.53446 -70.58948 27053 ft 366 kts 350°
2026-04-20 18:02 -19.50921 -70.59264 26598 ft 364 kts 350°
2026-04-20 18:02 -19.48420 -70.59575 26166 ft 361 kts 350°
2026-04-20 18:02 -19.45923 -70.59883 25700 ft 360 kts 351°
2026-04-20 18:03 -19.43416 -70.59921 25235 ft 362 kts
2026-04-20 18:03 -19.40927 -70.59448 24752 ft 364 kts 10°
2026-04-20 18:03 -19.38455 -70.58849 24258 ft 364 kts 11°
2026-04-20 18:03 -19.35983 -70.58252 23768 ft 365 kts 10°
2026-04-20 18:04 -19.33504 -70.57657 23213 ft 365 kts 11°
2026-04-20 18:04 -19.31028 -70.57065 22719 ft 363 kts 11°
2026-04-20 18:04 -19.28572 -70.56477 22239 ft 362 kts 11°
2026-04-20 18:04 -19.26949 -70.56088 21926 ft 361 kts 11°
2026-04-20 18:05 -19.21286 -70.54731 20841 ft 357 kts 10°
2026-04-20 18:05 -19.18865 -70.54149 20374 ft 356 kts 10°
2026-04-20 18:05 -19.16452 -70.53568 19916 ft 354 kts 11°
2026-04-20 18:06 -19.14053 -70.52990 19459 ft 353 kts 11°
2026-04-20 18:06 -19.11658 -70.52415 19001 ft 352 kts 11°
2026-04-20 18:06 -19.09270 -70.51846 18551 ft 351 kts 11°
2026-04-20 18:06 -19.06892 -70.51283 18161 ft 348 kts 11°
2026-04-20 18:07 -19.05328 -70.50912 17772 ft 348 kts 11°
2026-04-20 18:07 -19.03006 -70.50357 17326 ft 335 kts 12°
2026-04-20 18:07 -19.00779 -70.49822 16921 ft 321 kts 12°
2026-04-20 18:07 -18.98638 -70.49315 16540 ft 309 kts 10°
2026-04-20 18:08 -18.96558 -70.48914 16168 ft 299 kts
2026-04-20 18:08 -18.94533 -70.48591 15815 ft 291 kts
2026-04-20 18:08 -18.92529 -70.48296 15461 ft 289 kts
2026-04-20 18:08 -18.90531 -70.48008 15113 ft 290 kts
2026-04-20 18:09 -18.88532 -70.47715 14766 ft 292 kts
2026-04-20 18:09 -18.86515 -70.47413 14412 ft 294 kts
2026-04-20 18:09 -18.84486 -70.47102 14052 ft 296 kts
2026-04-20 18:09 -18.82437 -70.46779 13673 ft 298 kts
2026-04-20 18:10 -18.80380 -70.46451 13291 ft 299 kts
2026-04-20 18:10 -18.78317 -70.46122 12916 ft 300 kts
2026-04-20 18:10 -18.76252 -70.45795 12542 ft 301 kts 10°
2026-04-20 18:10 -18.74182 -70.45466 12164 ft 301 kts
2026-04-20 18:11 -18.72107 -70.45136 11775 ft 302 kts
2026-04-20 18:11 -18.70026 -70.44809 11382 ft 303 kts
2026-04-20 18:11 -18.67935 -70.44481 10984 ft 304 kts 10°
2026-04-20 18:11 -18.65840 -70.44151 10582 ft 305 kts 10°
2026-04-20 18:12 -18.63738 -70.43813 10177 ft 305 kts 12°
2026-04-20 18:12 -18.61798 -70.43054 9720 ft 292 kts 35°
2026-04-20 18:12 -18.60354 -70.41647 9303 ft 277 kts 56°
2026-04-20 18:12 -18.59526 -70.39882 8895 ft 264 kts 74°
2026-04-20 18:13 -18.58962 -70.38079 8497 ft 255 kts 72°
2026-04-20 18:13 -18.58408 -70.36341 8119 ft 246 kts 73°
2026-04-20 18:13 -18.57860 -70.34618 7727 ft 249 kts 72°
2026-04-20 18:13 -18.57290 -70.32910 7321 ft 244 kts 66°
2026-04-20 18:14 -18.56197 -70.31627 6938 ft 237 kts 27°
2026-04-20 18:14 -18.54647 -70.31386 6607 ft 228 kts 346°
2026-04-20 18:14 -18.53358 -70.32239 6309 ft 219 kts 306°
2026-04-20 18:14 -18.52864 -70.33695 5997 ft 210 kts 269°
2026-04-20 18:15 -18.53263 -70.35119 5737 ft 201 kts 235°
2026-04-20 18:15 -18.54038 -70.36284 5464 ft 188 kts 246°
2026-04-20 18:15 -18.54231 -70.37576 5224 ft 172 kts 273°
2026-04-20 18:15 -18.54021 -70.38748 4981 ft 157 kts 288°
2026-04-20 18:16 -18.53502 -70.39697 4750 ft 146 kts 316°
2026-04-20 18:16 -18.52613 -70.40171 4533 ft 146 kts 349°
2026-04-20 18:16 -18.51614 -70.40043 4284 ft 148 kts 18°
2026-04-20 18:16 -18.50644 -70.39676 4035 ft 148 kts 18°
2026-04-20 18:17 -18.49672 -70.39317 3780 ft 148 kts 18°
2026-04-20 18:17 -18.48703 -70.38962 3517 ft 147 kts 17°
2026-04-20 18:17 -18.47735 -70.38608 3249 ft 148 kts 17°
2026-04-20 18:17 -18.46764 -70.38252 2985 ft 148 kts 17°
2026-04-20 18:18 -18.45787 -70.37893 2716 ft 149 kts 18°
2026-04-20 18:18 -18.44825 -70.37539 2458 ft 148 kts 18°
2026-04-20 18:18 -18.43848 -70.37180 2193 ft 148 kts 19°
2026-04-20 18:18 -18.42874 -70.36821 1927 ft 148 kts 18°
2026-04-20 18:19 -18.41890 -70.36457 1668 ft 151 kts 19°
2026-04-20 18:19 -18.40898 -70.36091 1406 ft 151 kts 18°
2026-04-20 18:19 -18.39909 -70.35728 1134 ft 154 kts 17°
2026-04-20 18:19 -18.38892 -70.35355 888 ft 156 kts 18°
2026-04-20 18:20 -18.37860 -70.34989 505 ft 158 kts 16°
2026-04-20 18:20 -18.36850 -70.34622 321 ft 151 kts 19°
2026-04-20 18:20 -18.35873 -70.34246 167 ft 141 kts 17°
2026-04-20 18:20 -18.35160 -70.33991 182 ft 73 kts 19°
2026-04-20 18:21 -18.34958 -70.33912 192 ft 13 kts 30°
2026-04-20 18:21 -18.34954 -70.33837 184 ft 10 kts 107°
2026-04-20 18:21 -18.34969 -70.33785 182 ft 2 kts 107°
2026-04-20 18:21 -18.34974 -70.33764 181 ft 4 kts 95°
2026-04-20 18:22 -18.34964 -70.33737 181 ft 3 kts 39°
2026-04-20 18:22 -18.34947 -70.33730 181 ft 2 kts 21°
2026-04-20 18:22 -18.34911 -70.33716 181 ft 7 kts 20°
2026-04-20 18:22 -18.34904 -70.33681 181 ft 6 kts 106°
2026-04-20 18:23 -18.34915 -70.33650 181 ft 3 kts 110°
2026-04-20 18:23 -18.34920 -70.33635 181 ft 0 kts 109°
2026-04-20 18:23 -18.34920 -70.33634 181 ft 0 kts 109°